sat.trackr.live / text

‹ back to catalog

ONEWEB-0061

NORAD 45428 · 2020-020E

PAYLOAD ACTIVE UNKNOWN

§ Identity

Operator
Country
UK
Launch date
2020-03-21
Launch site
TYMSC
Launch vehicle
Mass (kg)
RCS (m²)

Purposes: comms

External: N2YO · Heavens-Above · Gunter

§ Orbital elements

Epoch: 2026-09-20T01:57:46.072800Z

Period
109.80 min
Inclination
87.8976°
Eccentricity
0.0001777
Mean motion
13.11417157 rev/d
Perigee alt
1,216.3 km
Apogee alt
1,219.0 km
Semi-major
7,595.8 km
B*
-1.2017e-3
RAAN
2.1970°
Arg perigee
99.9951°
Mean anomaly
260.1378°
Rev number
31,506

§ Raw data

ONEWEB-00611 45428U 20020E   26263.08178325 -.00000413  00000+0 -12017-2 0  99922 45428  87.8976   2.1970 0001777  99.9951 260.1378 13.11417157315066

JSON: /api/v1/satellites/45428 · /tle

For live sub-satellite position, see the globe view (requires WebGL).

§ Visibility from observer

Set your observer location to see the next 7 days of passes ≥ 10°. The values pass through the URL so the page stays shareable.

No JS? Fill the form by hand. The geolocation button needs JavaScript.